Weather History for Rock River, YT

Change the Weather History Date:

Thursday, October 24, 2013

  Actual Average Record
Temperature  
Mean Temperature 22 °F -  
Max Temperature 27 °F - - ()
Min Temperature 18 °F - - ()
Degree Days  
Heating Degree Days 42    
Moisture  
Dew Point 18 °F    
Average Humidity 83    
Maximum Humidity 98    
Minimum Humidity 57    
Precipitation  
Precipitation 0.00 in - - ()
Sea Level Pressure  
Sea Level Pressure 30.04 in    
Wind  
Wind Speed 13 mph ()    
Max Wind Speed 33 mph    
Max Gust Speed 40 mph    
T = Trace of Precipitation, MM = Missing Value Source: Averaged Metar Reports

Daily Weather History Graph

Daily Weather History Graph

Search for Another Location

Airport:

Trip Planner

Search our weather history database for the weather conditions in past years. The results will help you decide how hot, cold, wet, or windy it might be!

Date:

Astronomy

Oct. 24, 2013 Rise Set
Actual Time 9:38 AM PDT 5:57 PM PDT
Civil Twilight 8:41 AM PDT 6:55 PM PDT
Nautical Twilight 7:38 AM PDT 7:57 PM PDT
Astronomical Twilight 6:36 AM PDT 8:59 PM PDT
Moon 9:21 PM PDT (10/24) 3:56 PM PDT (10/24)
Length of Visible Light 10h 14m
Length of Day
8h 19m
Waning Gibbous, 70% of the Moon is Illuminated
Oct 24
Waning Gibbous
Oct 26
Last Quarter
Nov 3
New
Nov 9
First Quarter
Nov 17
Full

Hourly Weather History & Observations

Time (PDT) Temp. Windchill Dew Point Humidity Pressure Visibility Wind Dir Wind Speed Gust Speed Precip Events Conditions
12:00 AM 25.2 °F 7.6 °F 22.6 °F 90% 29.87 in - ENE 33.4 mph 40.3 mph N/A   Unknown
1:00 AM 25.0 °F 8.1 °F 22.6 °F 91% 29.90 in - ENE 29.9 mph 36.8 mph N/A   Unknown
2:00 AM 24.8 °F 9.0 °F 22.6 °F 91% 29.93 in - East 25.3 mph - N/A   Unknown
3:00 AM 24.6 °F 9.4 °F 22.1 °F 90% 29.95 in - ENE 23.0 mph 29.9 mph N/A   Unknown
4:00 AM 24.4 °F 7.6 °F 21.4 °F 88% 29.97 in - East 28.8 mph 35.7 mph N/A   Unknown
5:00 AM 24 °F - 21 °F 82% 30.01 in - East 19.6 mph - -  
5:00 AM 24.3 °F 10.8 °F 20.8 °F 87% 30.01 in - East 17.3 mph 28.8 mph N/A   Unknown
7:00 AM 22.8 °F - 21.4 °F 94% 30.06 in - South 2.3 mph - N/A   Unknown
8:00 AM 22.6 °F - 22.1 °F 98% 30.08 in - Calm Calm - N/A   Unknown
9:00 AM 22.1 °F - 21.2 °F 96% 30.09 in - Calm Calm - N/A   Unknown
10:00 AM 19.8 °F 14.7 °F 17.8 °F 92% 30.11 in - East 3.5 mph - N/A   Unknown
11:00 AM 22 °F - 19 °F 82% 30.11 in - East 1.2 mph - -  
11:00 AM 21.9 °F - 19.0 °F 89% 30.11 in - East 1.2 mph - N/A   Unknown
12:00 PM 23.7 °F 15.6 °F 17.8 °F 78% 30.11 in - SE 6.9 mph - N/A   Unknown
1:00 PM 23.9 °F - 15.8 °F 71% 30.10 in - NE 2.3 mph - N/A   Unknown
2:00 PM 26.1 °F - 16.2 °F 66% 30.09 in - SE 2.3 mph - N/A   Unknown
3:00 PM 26.4 °F - 13.8 °F 59% 30.09 in - ENE 1.2 mph - N/A   Unknown
4:00 PM 26.2 °F 20.7 °F 16.3 °F 66% 30.07 in - SE 4.6 mph - N/A   Unknown
5:00 PM 25 °F - 16 °F 57% 30.06 in - ESE 6.9 mph - -  
5:00 PM 24.8 °F 17.9 °F 16.0 °F 69% 30.06 in - ESE 5.8 mph - N/A   Unknown
6:00 PM 22.6 °F 11.9 °F 16.9 °F 79% 30.05 in - East 10.4 mph - N/A   Unknown
7:00 PM 22.8 °F 9.9 °F 17.8 °F 81% 30.04 in - East 15.0 mph - N/A   Unknown
8:00 PM 18.9 °F - 16.3 °F 90% 30.07 in - NW 2.3 mph - N/A   Unknown
9:00 PM 19.0 °F 12.3 °F 14.7 °F 83% 30.06 in - East 4.6 mph - N/A   Unknown
10:00 PM 18.3 °F 13.1 °F 13.5 °F 81% 30.05 in - SSE 3.5 mph - N/A   Unknown
11:00 PM 19 °F - 17 °F 89% 30.06 in - ENE 1.2 mph - -  
11:00 PM 19.0 °F - 17.2 °F 93% 30.06 in - East 1.2 mph - N/A   Unknown